[[{"header":{"parameterUnit":"m.s-1","parameterCategory":1,"la1":30.2991,"la2":30.254,"lo1":-89.0895,"lo2":-89.0444,"dy":0.0017,"dx":0.0017,"nx":28,"ny":28,"refTime":"2023-08-22T21:00:00:Z","depth":0,"parameterNumber":2,"parameterNumberName":"U-component_of_WINDS"},"data":[0,0,0,0,0,0,0,0,0,0,0,0,0,0,0,0,0,0,0,0,0,0,0,0,0,0,0,0,0,0,0,0,0,0,0,0,0,0,0,0,0,0,0,0,0,0,0,0,0,0,0,0,0,0,0,0,0,0,1.7795,1.7795,0,1.7832,1.7832,1.7833,1.7779,1.7777,1.7775,1.7773,1.7809,1.7812,1.7815,0,0,0,0,0,0,0,0,0,0,0,0,0,1.7674,1.7677,1.7795,1.7795,1.7796,1.7832,1.7832,1.7833,1.7779,1.7777,1.7774,1.7772,1.7808,1.7812,1.7815,0,0,0,0,0,0,0,0,0,0,0,0,0,1.7721,1.7678,1.7795,1.7773,1.7771,1.7832,1.7832,1.7833,1.7779,1.7777,1.7774,1.7771,1.7807,1.7811,1.7815,1.7898,0,0,1.7828,1.783,0,0,0,0,0,0,0,0,1.7718,1.7725,1.7776,1.7775,1.7773,1.7798,1.7803,1.7855,1.778,1.7776,1.7773,1.777,1.7808,1.7811,1.7825,1.7899,1.7901,1.7828,1.7831,1.7832,1.7834,0,0,0,0,0,0,0,1.7715,1.7723,1.7809,1.7776,1.7775,1.7761,1.7764,1.7813,1.7807,1.7776,1.7773,1.7778,1.7806,1.7821,1.7825,1.7902,1.7828,1.7832,1.7834,1.7836,1.8046,1.8049,0,0,0,0,0,0,1.7715,1.7721,1.7808,1.781,1.7738,1.7765,1.7769,1.7793,1.7807,1.7806,1.778,1.7775,1.7815,1.782,1.7826,1.7924,1.7832,1.7836,1.7839,1.8043,1.8047,1.8051,0,0,0,0,0,0,1.7712,1.7723,1.7807,1.7765,1.7774,1.7771,1.7797,1.7795,1.7809,1.781,1.7808,1.7796,1.7813,1.782,1.7881,1.7925,1.7838,1.7842,1.804,1.8045,1.8049,1.8121,0,0,0,0,0,0,1.7709,1.7722,1.7754,1.7766,1.7777,1.7861,1.78,1.7798,1.7817,1.7811,1.7824,1.7824,1.7811,1.7875,1.7885,1.7929,1.7845,1.8036,1.8042,1.8047,1.8115,1.8128,1.8139,0,0,0,0,0,1.7705,1.7772,1.7756,1.7767,1.7817,1.7864,1.787,1.7855,1.7821,1.7852,1.7853,1.7823,1.7918,1.7881,1.7892,1.7938,1.8033,1.804,1.8047,1.8109,1.8125,1.8138,0,0,0,0,0,0,1.7765,1.7774,1.7756,1.7829,1.7846,1.7855,1.7894,1.7872,1.7899,1.7892,1.7871,1.7875,1.794,1.7945,1.7904,1.8019,1.797,1.7979,1.8014,1.8029,1.804,1.8038,1.7848,0,0,0,0,0,1.7787,1.7826,1.783,1.7895,1.7904,1.7898,1.7918,1.7905,1.7922,1.7929,1.7933,1.795,1.7984,1.8006,1.8037,1.8115,1.8117,1.8152,1.8164,1.8174,1.8182,1.8224,1.824,1.8074,1.8074,1.8074,0,0,1.7833,1.7842,1.7867,1.7907,1.7919,1.7959,1.7905,1.7949,1.7978,1.7935,1.7993,1.7997,1.8014,1.8084,1.8115,1.809,1.8229,1.8183,1.8191,1.8194,1.8233,1.8249,1.8263,1.8078,1.8078,1.8077,0,0,1.7936,1.7947,1.8002,1.8015,1.8034,1.803,1.8043,1.8055,1.8056,1.8114,1.8083,1.8117,1.8175,1.8189,1.8204,1.8313,1.8288,1.8324,1.8387,1.8428,1.8441,1.8452,1.8492,1.8506,1.8332,1.8332,1.8333,0,1.799,1.805,1.8033,1.808,1.8098,1.8062,1.8118,1.8131,1.8159,1.8172,1.8144,1.8217,1.8226,1.8299,1.8326,1.8339,1.8353,1.8322,1.844,1.8452,1.8462,1.85,1.8515,1.8337,1.8336,1.8336,1.8335,0,1.8115,1.8157,1.8199,1.8228,1.8251,1.8302,1.8293,1.8318,1.8303,1.8301,1.8361,1.837,1.8403,1.8419,1.8404,1.849,1.8474,1.8444,1.8394,1.8483,1.8518,1.8532,1.8343,1.8341,1.834,1.8339,0,0,1.8258,1.8277,1.8293,1.8306,1.8325,1.8356,1.8406,1.8438,1.8461,1.8481,1.8522,1.8572,1.8544,1.8561,1.8548,1.8584,1.8671,1.8549,1.8549,1.8572,1.8766,1.8789,1.8806,1.8654,1.8656,1.8658,1.8765,0,1.8361,1.8447,1.8434,1.8517,1.8556,1.8522,1.8565,1.8581,1.858,1.8612,1.8611,1.8648,1.8608,1.8618,1.8653,1.8653,1.871,1.8645,1.8691,1.8693,1.8689,1.8824,1.8849,1.8949,1.8778,1.8781,1.8782,0,1.8494,1.8521,1.8608,1.8621,1.8637,1.8676,1.8705,1.8736,1.8753,1.875,1.877,1.875,1.8798,1.8748,1.8815,1.8771,1.8789,1.8792,1.8796,1.88,1.8743,1.8832,1.898,1.8995,1.8803,1.8802,1.88,0,1.859,1.8647,1.8707,1.8719,1.8736,1.8764,1.8772,1.8787,1.8807,1.8832,1.8846,1.8876,1.8892,1.8916,1.8905,1.8869,1.8974,1.8922,1.8973,1.8974,1.8997,1.8996,1.915,1.9008,1.9008,1.9008,1.9007,0,1.8708,1.8762,1.8751,1.8787,1.8848,1.8831,1.8891,1.8895,1.8909,1.8945,1.8917,1.8952,1.8935,1.8969,1.896,1.9017,1.9024,1.9023,1.902,1.9026,1.9027,1.9038,1.9031,1.9011,1.9011,1.901,1.9009,0,1.8825,1.8819,1.8882,1.8893,1.8897,1.8942,1.895,1.8985,1.8982,1.9029,1.9039,1.9035,1.9073,1.9065,1.9106,1.91,1.9172,1.916,1.9167,1.9164,1.9215,1.9211,1.9383,1.9405,1.9248,1.925,1.9251,0,1.8901,1.8942,1.8958,1.8981,1.8992,1.9029,1.905,1.9036,1.9059,1.9082,1.9114,1.9149,1.9177,1.9239,1.924,1.9272,1.926,1.9319,1.9265,1.927,1.9262,1.926,1.9264,1.9329,1.9331,1.9333,1.9334,0,1.9036,1.9031,1.9064,1.9095,1.9122,1.9145,1.9166,1.9187,1.9174,1.9201,1.924,1.9262,1.9305,1.9341,1.937,1.9377,1.9354,1.9351,1.9364,1.9371,1.9373,1.9373,1.9196,1.9347,1.9346,1.9345,1.9344,1.9343,1.9135,1.9171,1.9188,1.9225,1.9239,1.926,1.9293,1.9295,1.9328,1.9362,1.9351,1.9396,1.9412,1.9449,1.946,1.9494,1.9472,1.9492,1.9497,1.9502,1.9509,1.9367,1.9499,1.9499,1.9499,1.9498,1.9498,0,1.927,1.9279,1.9313,1.9344,1.9373,1.9349,1.9371,1.9397,1.9437,1.9454,1.9483,1.9528,1.9562,1.9566,1.9599,1.9626,1.9616,1.9635,1.9633,1.9635,1.9526,1.9512,1.9642,1.9642,1.9642,1.9642,1.9642,1.9642,1.9343,1.9402,1.94,1.9466,1.9474,1.9519,1.9534,1.9552,1.9566,1.9618,1.9647,1.9649,1.9661,1.9695,1.9725,1.9725,1.9739,1.9762,1.9759,1.9657,1.9643,1.9629,1.9615,1.9765,1.9766,1.9864,1.9865,1.9866]},{"header":{"parameterUnit":"m.s-1","parameterCategory":1,"la1":30.2991,"la2":30.254,"lo1":-89.0895,"lo2":-89.0444,"dy":0.0017,"dx":0.0017,"nx":28,"ny":28,"refTime":"2023-08-22T21:00:00:Z","depth":0,"parameterNumber":3,"parameterNumberName":"V-component_of_WINDS"},"data":[0,0,0,0,0,0,0,0,0,0,0,0,0,0,0,0,0,0,0,0,0,0,0,0,0,0,0,0,0,0,0,0,0,0,0,0,0,0,0,0,0,0,0,0,0,0,0,0,0,0,0,0,0,0,0,0,0,0,-0.669,-0.669,0,-0.6749,-0.675,-0.6751,-0.6781,-0.6781,-0.6781,-0.6781,-0.6842,-0.6844,-0.6846,0,0,0,0,0,0,0,0,0,0,0,0,0,-0.6602,-0.6604,-0.669,-0.6691,-0.6691,-0.6749,-0.675,-0.6751,-0.6781,-0.6781,-0.6781,-0.6781,-0.6842,-0.6844,-0.6846,0,0,0,0,0,0,0,0,0,0,0,0,0,-0.6649,-0.6604,-0.669,-0.6713,-0.6716,-0.6749,-0.675,-0.6751,-0.6781,-0.6781,-0.6781,-0.6781,-0.6841,-0.6844,-0.6846,-0.686,0,0,-0.6853,-0.6854,0,0,0,0,0,0,0,0,-0.6646,-0.6652,-0.6709,-0.6712,-0.6715,-0.6758,-0.6742,-0.6788,-0.6781,-0.6756,-0.6781,-0.6781,-0.6814,-0.6819,-0.683,-0.6863,-0.6866,-0.6854,-0.6855,-0.6856,-0.6857,0,0,0,0,0,0,0,-0.6643,-0.665,-0.6713,-0.671,-0.6713,-0.6721,-0.6728,-0.6751,-0.6784,-0.6759,-0.6761,-0.6768,-0.6816,-0.6828,-0.6832,-0.6866,-0.6853,-0.6856,-0.6857,-0.6858,-0.6915,-0.6915,0,0,0,0,0,0,-0.6636,-0.6647,-0.6712,-0.6715,-0.668,-0.6723,-0.673,-0.6744,-0.6784,-0.679,-0.6767,-0.6769,-0.6823,-0.6829,-0.6834,-0.6854,-0.6856,-0.6858,-0.686,-0.6915,-0.6915,-0.6915,0,0,0,0,0,0,-0.6634,-0.6641,-0.6709,-0.6682,-0.6691,-0.6724,-0.674,-0.6745,-0.6757,-0.6791,-0.6797,-0.6773,-0.6824,-0.6831,-0.6854,-0.6856,-0.6859,-0.6862,-0.6915,-0.6915,-0.6915,-0.6893,0,0,0,0,0,0,-0.6631,-0.6641,-0.6646,-0.6682,-0.6692,-0.6727,-0.674,-0.6746,-0.6761,-0.6763,-0.6798,-0.6804,-0.6824,-0.685,-0.6856,-0.686,-0.6863,-0.6915,-0.6915,-0.6915,-0.6894,-0.6892,-0.6891,0,0,0,0,0,-0.6628,-0.6637,-0.6646,-0.6654,-0.67,-0.6728,-0.6734,-0.6757,-0.6761,-0.6767,-0.6789,-0.6803,-0.6855,-0.6852,-0.6859,-0.6863,-0.6915,-0.6915,-0.6915,-0.6894,-0.6893,-0.6891,0,0,0,0,0,0,-0.6601,-0.6642,-0.6653,-0.6674,-0.6697,-0.6733,-0.6741,-0.6754,-0.6777,-0.6778,-0.6806,-0.6814,-0.6834,-0.6851,-0.6847,-0.688,-0.6886,-0.6888,-0.6868,-0.6867,-0.6865,-0.6861,-0.6865,0,0,0,0,0,-0.6598,-0.6616,-0.6652,-0.6667,-0.6678,-0.6707,-0.672,-0.6736,-0.6761,-0.6771,-0.6795,-0.6819,-0.6841,-0.6855,-0.6877,-0.6896,-0.6905,-0.6903,-0.6902,-0.69,-0.6902,-0.6914,-0.6914,-0.6916,-0.6916,-0.6916,0,0,-0.659,-0.6615,-0.6626,-0.6662,-0.6682,-0.6701,-0.6715,-0.6735,-0.675,-0.6774,-0.6798,-0.6816,-0.6845,-0.6866,-0.6877,-0.6881,-0.6903,-0.6901,-0.69,-0.6901,-0.6914,-0.6914,-0.6914,-0.6916,-0.6916,-0.6916,0,0,-0.6587,-0.6608,-0.6623,-0.6643,-0.6673,-0.6693,-0.6696,-0.673,-0.6743,-0.6767,-0.6786,-0.6804,-0.6841,-0.6861,-0.6876,-0.6881,-0.6895,-0.6887,-0.6881,-0.6893,-0.6893,-0.6893,-0.6895,-0.6896,-0.6888,-0.6888,-0.6888,0,-0.6575,-0.6604,-0.6629,-0.6648,-0.6664,-0.6687,-0.6703,-0.6721,-0.6756,-0.6767,-0.6771,-0.6818,-0.6839,-0.6866,-0.6867,-0.6879,-0.6884,-0.6884,-0.6891,-0.6891,-0.6891,-0.6894,-0.6895,-0.6887,-0.6887,-0.6888,-0.6888,0,-0.6588,-0.6608,-0.6617,-0.6651,-0.6667,-0.6684,-0.6712,-0.6726,-0.6741,-0.676,-0.6784,-0.681,-0.6838,-0.6846,-0.686,-0.6875,-0.6877,-0.6885,-0.6892,-0.689,-0.6893,-0.6894,-0.6886,-0.6886,-0.6887,-0.6887,0,0,-0.6569,-0.6617,-0.662,-0.6636,-0.6671,-0.6687,-0.6706,-0.6733,-0.6745,-0.6769,-0.6785,-0.6816,-0.6825,-0.6842,-0.6858,-0.6869,-0.6872,-0.6876,-0.6878,-0.6875,-0.689,-0.6884,-0.6884,-0.6881,-0.6881,-0.6882,-0.6888,0,-0.6571,-0.6605,-0.6628,-0.6654,-0.6673,-0.6696,-0.6712,-0.6735,-0.6754,-0.6773,-0.6794,-0.6816,-0.6825,-0.6836,-0.6847,-0.6869,-0.6875,-0.6869,-0.6897,-0.6898,-0.6889,-0.6886,-0.6879,-0.6884,-0.6889,-0.689,-0.689,0,-0.6578,-0.6602,-0.6629,-0.6662,-0.6671,-0.6685,-0.6713,-0.6731,-0.6758,-0.6771,-0.679,-0.6808,-0.6829,-0.6834,-0.6863,-0.6858,-0.6871,-0.6884,-0.6885,-0.6888,-0.6894,-0.689,-0.6886,-0.6887,-0.6892,-0.6891,-0.6891,0,-0.6562,-0.6601,-0.6622,-0.6635,-0.6675,-0.6684,-0.6701,-0.6728,-0.6744,-0.6768,-0.6778,-0.6804,-0.6818,-0.6838,-0.6863,-0.6864,-0.689,-0.6897,-0.6901,-0.6901,-0.6906,-0.6905,-0.6904,-0.6914,-0.6914,-0.6914,-0.6913,0,-0.6563,-0.6578,-0.6616,-0.6629,-0.6647,-0.6674,-0.6691,-0.671,-0.6735,-0.6752,-0.6774,-0.6789,-0.682,-0.684,-0.6859,-0.6881,-0.6887,-0.6899,-0.6904,-0.6897,-0.6896,-0.6906,-0.6906,-0.6914,-0.6914,-0.6914,-0.6914,0,-0.6548,-0.6574,-0.6598,-0.6634,-0.6643,-0.6656,-0.6686,-0.67,-0.672,-0.6742,-0.6749,-0.678,-0.6805,-0.6831,-0.6864,-0.6877,-0.6898,-0.6905,-0.6889,-0.6892,-0.6895,-0.6894,-0.6901,-0.6903,-0.691,-0.691,-0.691,0,-0.6546,-0.6559,-0.6596,-0.661,-0.6626,-0.6647,-0.6663,-0.669,-0.6705,-0.6738,-0.6748,-0.6774,-0.6797,-0.6835,-0.6861,-0.6887,-0.6894,-0.6895,-0.6898,-0.6892,-0.6895,-0.6894,-0.6896,-0.6894,-0.6893,-0.6893,-0.6893,0,-0.6541,-0.6553,-0.6575,-0.6602,-0.662,-0.6642,-0.6665,-0.6675,-0.6707,-0.6723,-0.6749,-0.6766,-0.68,-0.6826,-0.6855,-0.6873,-0.6889,-0.6892,-0.6894,-0.6888,-0.6878,-0.6884,-0.6886,-0.6892,-0.6892,-0.6892,-0.6892,-0.6892,-0.6534,-0.6546,-0.6575,-0.6598,-0.6619,-0.664,-0.6655,-0.6677,-0.6698,-0.6728,-0.6743,-0.6769,-0.6796,-0.6837,-0.6855,-0.6875,-0.688,-0.6883,-0.6884,-0.6885,-0.6883,-0.6875,-0.6881,-0.6881,-0.6881,-0.6881,-0.6881,0,-0.653,-0.6549,-0.6571,-0.6603,-0.6622,-0.6634,-0.6661,-0.6676,-0.6698,-0.6723,-0.6744,-0.6774,-0.68,-0.6828,-0.6855,-0.6866,-0.6874,-0.6872,-0.6872,-0.6876,-0.6878,-0.6873,-0.6866,-0.6866,-0.6866,-0.6866,-0.6866,-0.6866,-0.653,-0.6552,-0.6568,-0.6601,-0.662,-0.6645,-0.6659,-0.6679,-0.6699,-0.6731,-0.6752,-0.6771,-0.6797,-0.6826,-0.6851,-0.6858,-0.6868,-0.6864,-0.6874,-0.6875,-0.6876,-0.6877,-0.6873,-0.6866,-0.6866,-0.6871,-0.6871,-0.6871]}]]